Location: La Trinit�
(48.1620°N, 3.4512°W)
Time: 14:46:45
(UTC+00:00)

CZ-2C R/B - Pass Details

Date: 08 May 2021
Orbit: 640 x 703 km, 98.3° (Epoch: 23 June)

Event Time Altitude Azimuth Distance (km) Brightness Sun altitude
Rises 21:05:45 0° 15° (NNE) 2,966 7.5 -12.7°
Reaches altitude 10° 21:07:58 10° 17° (NNE) 2,057 6.6 -12.9°
Maximum altitude 21:12:27 76° 103° (ESE) 676 3.6 -13.4°
Drops below altitude 10° 21:16:58 10° 190° (S) 2,070 5.9 -14.0°
Enters shadow 21:17:35 - 191° (S) 2,326 6.2 -14.0°
